| time (UTC) | temp C | wind direction | speed KPH | gust KPH | rain 1hr cm | rain 24hr cm | rain mn cm | humidity % | barometer mb |
| 20260509034304 | 18 | 267 | 8.0 | 14.5 | 0.00 | 1.02 | 0.48 | 4 | 1005.3 |
| 20260509033304 | 18 | 257 | 4.8 | 20.9 | 0.00 | 1.02 | 0.48 | 4 | 1005.6 |
| 20260509032804 | 18 | 255 | 4.8 | 16.1 | 0.00 | 1.02 | 0.48 | 4 | 1005.8 |
| 20260509032306 | 18 | 244 | 9.7 | 19.3 | 0.00 | 1.02 | 0.48 | 4 | 1005.8 |
| 20260509031303 | 18 | 241 | 3.2 | 14.5 | 0.00 | 1.02 | 0.48 | 4 | 1005.9 |
| 20260509030304 | 18 | 258 | 9.7 | 19.3 | 0.00 | 1.02 | 0.48 | 4 | 1005.9 |
| 20260509025804 | 18 | 253 | 9.7 | 19.3 | 0.00 | 1.02 | 0.48 | 4 | 1005.8 |
| 20260509022307 | 19 | 247 | 8.0 | 16.1 | 0.00 | 1.02 | 0.48 | 45 | 1005.4 |
| 20260509021305 | 20 | 250 | 11.3 | 24.1 | 0.00 | 1.02 | 0.48 | 42 | 1005.6 |
| 20260509020807 | 20 | 266 | 8.0 | 20.9 | 0.00 | 1.02 | 0.48 | 33 | 1005.6 |
| 20260509020307 | 20 | 263 | 11.3 | 19.3 | 0.00 | 1.02 | 0.48 | 24 | 1005.6 |
| 20260509015307 | 19 | 242 | 11.3 | 24.1 | 0.00 | 1.02 | 0.48 | 4 | 1005.6 |
| 20260509013804 | 19 | 283 | 8.0 | 12.9 | 0.00 | 1.02 | 0.48 | 4 | 1005.6 |
| 20260509013305 | 19 | 254 | 11.3 | 22.5 | 0.03 | 1.02 | 0.48 | 4 | 1005.6 |
| 20260509012806 | 19 | 252 | 11.3 | 19.3 | 0.03 | 1.02 | 0.48 | 4 | 1005.7 |
| 20260509011304 | 18 | 267 | 6.4 | 14.5 | 0.03 | 1.02 | 0.48 | 4 | 1005.9 |
| 20260509010805 | 18 | 254 | 8.0 | 19.3 | 0.03 | 1.02 | 0.48 | 4 | 1006.0 |
| 20260509004307 | 16 | 262 | 9.7 | 19.3 | 0.05 | 1.02 | 0.48 | 4 | 1006.7 |
| 20260509003805 | 17 | 258 | 9.7 | 19.3 | 0.05 | 1.02 | 0.48 | 4 | 1006.8 |
| 20260509000305 | 18 | 277 | 9.7 | 19.3 | 0.03 | 0.99 | 0.46 | 4 | 1007.3 |
| 20260508235804 | 18 | 266 | 6.4 | 14.5 | 0.00 | 0.99 | 0.43 | 4 | 1007.4 |
| 20260508234307 | 17 | 256 | 4.8 | 12.9 | 0.00 | 0.99 | 0.43 | 4 | 1007.7 |
| 20260508233806 | 17 | 278 | 3.2 | 9.7 | 0.00 | 0.99 | 0.43 | 4 | 1007.8 |
| 20260508233306 | 17 | 286 | 3.2 | 9.7 | 0.00 | 0.99 | 0.43 | 4 | 1007.9 |
| 20260508232805 | 17 | 276 | 8.0 | 16.1 | 0.00 | 0.99 | 0.43 | 4 | 1007.9 |
| 20260508231804 | 17 | 278 | 4.8 | 11.3 | 0.00 | 0.99 | 0.43 | 4 | 1008.0 |
| 20260508231305 | 17 | 295 | 3.2 | 8.0 | 0.00 | 0.99 | 0.43 | 4 | 1008.0 |
| 20260508230806 | 16 | 274 | 3.2 | 11.3 | 0.00 | 0.99 | 0.43 | 4 | 1008.1 |
| 20260508222804 | 16 | 248 | 8.0 | 14.5 | 0.10 | 0.99 | 0.43 | 4 | 1008.5 |
| 20260508222306 | 16 | 247 | 6.4 | 12.9 | 0.10 | 0.99 | 0.43 | 4 | 1008.5 |
| 20260508221805 | 16 | 272 | 4.8 | 9.7 | 0.10 | 0.99 | 0.43 | 4 | 1008.5 |
| 20260508221307 | 15 | 273 | 8.0 | 12.9 | 0.10 | 0.99 | 0.43 | 4 | 1008.4 |
| 20260508220305 | 16 | 246 | 11.3 | 24.1 | 0.08 | 0.97 | 0.43 | 4 | 1008.6 |
| 20260508215307 | 16 | 273 | 3.2 | 9.7 | 0.00 | 0.89 | 0.33 | 4 | 1008.4 |
| 20260508214807 | 16 | 292 | 1.6 | 3.2 | 0.00 | 0.89 | 0.33 | 4 | 1008.4 |
| 20260508214306 | 16 | 295 | 1.6 | 4.8 | 0.00 | 0.89 | 0.33 | 4 | 1008.4 |
| 20260508211306 | 16 | 277 | 6.4 | 11.3 | 0.00 | 0.89 | 0.33 | 4 | 1008.5 |
| 20260508204306 | 15 | 292 | 0.0 | 0.0 | 0.00 | 0.89 | 0.33 | 4 | 1008.4 |
| 20260508202807 | 15 | 266 | 0.0 | 0.0 | 0.00 | 0.89 | 0.33 | 4 | 1008.4 |
| 20260508202306 | 15 | 283 | 0.0 | 0.0 | 0.00 | 0.89 | 0.33 | 4 | 1008.4 |
| 20260508200305 | 14 | 283 | 0.0 | 0.0 | 0.00 | 0.89 | 0.33 | 4 | 1008.3 |
| 20260508195806 | 14 | 283 | 0.0 | 0.0 | 0.00 | 0.89 | 0.33 | 4 | 1008.3 |
| 20260508195307 | 14 | 283 | 0.0 | 0.0 | 0.03 | 0.89 | 0.33 | 4 | 1008.2 |
| 20260508193807 | 13 | 283 | 0.0 | 0.0 | 0.03 | 0.89 | 0.33 | 4 | 1008.1 |
| 20260508191305 | 13 | 284 | 0.0 | 1.6 | 0.03 | 0.89 | 0.33 | 4 | 1008.1 |
| 20260508190807 | 13 | 285 | 0.0 | 1.6 | 0.05 | 0.89 | 0.33 | 4 | 1008.0 |
| 20260508184306 | 14 | 286 | 0.0 | 1.6 | 0.05 | 0.86 | 0.33 | 4 | 1007.8 |
| 20260508183304 | 14 | 286 | 0.0 | 1.6 | 0.05 | 0.86 | 0.33 | 4 | 1007.8 |
| 20260508182307 | 15 | 279 | 4.8 | 12.9 | 0.05 | 0.86 | 0.33 | 4 | 1007.8 |
| 20260508181805 | 15 | 282 | 1.6 | 11.3 | 0.05 | 0.86 | 0.33 | 4 | 1007.7 |
| 20260508181305 | 15 | 256 | 8.0 | 19.3 | 0.05 | 0.86 | 0.33 | 4 | 1007.8 |
| 20260508180807 | 14 | 266 | 3.2 | 4.8 | 0.03 | 0.84 | 0.30 | 4 | 1007.8 |
| 20260508180305 | 14 | 269 | 0.0 | 0.0 | 0.00 | 0.81 | 0.28 | 4 | 1007.7 |
| 20260508174805 | 14 | 289 | 0.0 | 0.0 | 0.00 | 0.81 | 0.28 | 4 | 1007.7 |
| 20260508174307 | 14 | 290 | 0.0 | 0.0 | 0.00 | 0.81 | 0.28 | 4 | 1007.7 |
| 20260508173807 | 14 | 296 | 0.0 | 1.6 | 0.00 | 0.81 | 0.28 | 4 | 1007.7 |
| 20260508173307 | 14 | 282 | 0.0 | 1.6 | 0.00 | 0.81 | 0.28 | 4 | 1007.7 |
| 20260508172806 | 14 | 277 | 0.0 | 1.6 | 0.00 | 0.81 | 0.28 | 4 | 1007.7 |
| 20260508171804 | 14 | 268 | 0.0 | 1.6 | 0.00 | 0.81 | 0.28 | 4 | 1007.7 |
| 20260508171307 | 14 | 268 | 1.6 | 4.8 | 0.00 | 0.81 | 0.28 | 4 | 1007.7 |
| 20260508163807 | 14 | 273 | 1.6 | 1.6 | 0.00 | 0.81 | 0.28 | 4 | 1007.7 |
| 20260508163307 | 14 | 272 | 1.6 | 1.6 | 0.00 | 0.81 | 0.28 | 4 | 1007.7 |
| 20260508162806 | 14 | 272 | 1.6 | 1.6 | 0.00 | 0.81 | 0.28 | 4 | 1007.7 |
| 20260508161305 | 13 | 273 | 1.6 | 3.2 | 0.00 | 0.81 | 0.28 | 4 | 1007.8 |
| 20260508160807 | 13 | 271 | 1.6 | 4.8 | 0.00 | 0.81 | 0.28 | 4 | 1007.8 |
| 20260508155306 | 13 | 266 | 0.0 | 1.6 | 0.00 | 0.81 | 0.28 | 4 | 1007.8 |
| 20260508154806 | 13 | 266 | 0.0 | 1.6 | 0.00 | 0.81 | 0.28 | 4 | 1007.8 |
| 20260508153805 | 13 | 266 | 0.0 | 1.6 | 0.00 | 0.81 | 0.28 | 4 | 1007.9 |
| 20260508153305 | 13 | 266 | 0.0 | 0.0 | 0.00 | 0.81 | 0.28 | 4 | 1008.0 |
| 20260508151805 | 14 | 266 | 0.0 | 3.2 | 0.00 | 0.81 | 0.28 | 4 | 1008.1 |
| 20260508145807 | 14 | 269 | 0.0 | 3.2 | 0.00 | 0.81 | 0.28 | 4 | 1008.3 |
| 20260508143805 | 14 | 264 | 1.6 | 4.8 | 0.00 | 0.81 | 0.28 | 4 | 1008.3 |
| 20260508143307 | 14 | 270 | 1.6 | 3.2 | 0.00 | 0.81 | 0.28 | 4 | 1008.3 |
| 20260508142807 | 14 | 270 | 1.6 | 3.2 | 0.00 | 0.81 | 0.28 | 4 | 1008.3 |
| 20260508142307 | 14 | 269 | 1.6 | 3.2 | 0.00 | 0.81 | 0.28 | 4 | 1008.4 |
| 20260508141306 | 14 | 285 | 0.0 | 3.2 | 0.00 | 0.81 | 0.28 | 4 | 1008.4 |
| 20260508140305 | 14 | 274 | 1.6 | 3.2 | 0.00 | 0.81 | 0.28 | 4 | 1008.6 |
| 20260508134805 | 14 | 285 | 0.0 | 3.2 | 0.05 | 0.81 | 0.28 | 4 | 1008.7 |
| 20260508132307 | 14 | 273 | 1.6 | 4.8 | 0.23 | 0.81 | 0.28 | 4 | 1008.6 |
| 20260508131804 | 14 | 272 | 1.6 | 4.8 | 0.25 | 0.81 | 0.28 | 4 | 1008.5 |
| 20260508131305 | 14 | 274 | 3.2 | 4.8 | 0.25 | 0.81 | 0.28 | 4 | 1008.6 |
| 20260508130305 | 14 | 277 | 1.6 | 4.8 | 0.28 | 0.81 | 0.28 | 4 | 1008.5 |
| 20260508125804 | 14 | 275 | 3.2 | 9.7 | 0.28 | 0.81 | 0.28 | 4 | 1008.5 |
| 20260508124806 | 14 | 264 | 1.6 | 4.8 | 0.23 | 0.76 | 0.23 | 4 | 1008.6 |
| 20260508124306 | 14 | 259 | 3.2 | 4.8 | 0.23 | 0.76 | 0.23 | 4 | 1008.6 |
| 20260508123805 | 15 | 278 | 3.2 | 4.8 | 0.23 | 0.76 | 0.23 | 4 | 1008.8 |
| 20260508123305 | 15 | 267 | 3.2 | 4.8 | 0.23 | 0.76 | 0.23 | 4 | 1008.9 |
| 20260508122307 | 15 | 262 | 8.0 | 16.1 | 0.15 | 0.61 | 0.05 | 4 | 1009.3 |
| 20260508120824 | 15 | 262 | 3.2 | 12.9 | 0.23 | 0.53 | 0.00 | 4 | 1009.2 |
| 20260508120306 | 15 | 271 | 4.8 | 24.1 | 0.23 | 0.53 | 0.00 | 4 | 1009.2 |
| 20260508115306 | 15 | 280 | 6.4 | 16.1 | 0.23 | 0.53 | 0.53 | 4 | 1009.4 |
| 20260508114305 | 15 | 274 | 8.0 | 20.9 | 0.23 | 0.53 | 0.53 | 4 | 1009.1 |
| 20260508113305 | 16 | 260 | 14.5 | 27.4 | 0.23 | 0.53 | 0.53 | 4 | 1009.1 |
| 20260508112805 | 16 | 250 | 11.3 | 25.7 | 0.23 | 0.51 | 0.51 | 4 | 1008.9 |
| 20260508110805 | 17 | 320 | 3.2 | 11.3 | 0.00 | 0.30 | 0.30 | 4 | 1008.3 |
| 20260508110307 | 17 | 328 | 3.2 | 19.3 | 0.00 | 0.30 | 0.30 | 4 | 1008.4 |
| 20260508105805 | 17 | 331 | 3.2 | 11.3 | 0.00 | 0.30 | 0.30 | 4 | 1008.5 |
| 20260508104305 | 17 | 337 | 3.2 | 14.5 | 0.00 | 0.30 | 0.30 | 4 | 1008.7 |
| 20260508100306 | 17 | 315 | 1.6 | 4.8 | 0.13 | 0.30 | 0.30 | 4 | 1009.2 |
| 20260508095804 | 17 | 336 | 1.6 | 12.9 | 0.13 | 0.30 | 0.30 | 4 | 1009.3 |
| 20260508095306 | 17 | 329 | 3.2 | 9.7 | 0.13 | 0.30 | 0.30 | 4 | 1009.5 |
| 20260508094805 | 17 | 324 | 1.6 | 8.0 | 0.13 | 0.30 | 0.30 | 4 | 1009.6 |
| 20260508093305 | 17 | 333 | 3.2 | 9.7 | 0.10 | 0.28 | 0.28 | 4 | 1009.6 |
| 20260508091807 | 17 | 331 | 1.6 | 9.7 | 0.05 | 0.23 | 0.23 | 4 | 1010.0 |
| 20260508091304 | 17 | 331 | 1.6 | 4.8 | 0.05 | 0.23 | 0.23 | 4 | 1010.0 |
| 20260508090805 | 17 | 344 | 1.6 | 9.7 | 0.05 | 0.23 | 0.23 | 4 | 1010.1 |
| 20260508090307 | 17 | 341 | 3.2 | 8.0 | 0.03 | 0.18 | 0.18 | 4 | 1010.0 |
| 20260508085806 | 17 | 324 | 1.6 | 4.8 | 0.03 | 0.18 | 0.18 | 4 | 1010.2 |
| 20260508084305 | 17 | 328 | 1.6 | 4.8 | 0.05 | 0.18 | 0.18 | 4 | 1010.3 |
| 20260508083806 | 17 | 319 | 3.2 | 4.8 | 0.08 | 0.18 | 0.18 | 4 | 1010.4 |
| 20260508083307 | 17 | 356 | 3.2 | 11.3 | 0.10 | 0.18 | 0.18 | 4 | 1010.3 |
| 20260508082306 | 17 | 329 | 1.6 | 9.7 | 0.13 | 0.18 | 0.18 | 4 | 1010.3 |
| 20260508081305 | 17 | 338 | 3.2 | 8.0 | 0.13 | 0.18 | 0.18 | 4 | 1010.2 |
| 20260508080804 | 17 | 315 | 3.2 | 9.7 | 0.13 | 0.18 | 0.18 | 4 | 1010.3 |
| 20260508080304 | 17 | 334 | 4.8 | 16.1 | 0.10 | 0.15 | 0.15 | 4 | 1010.3 |
| 20260508075308 | 17 | 328 | 3.2 | 9.7 | 0.10 | 0.15 | 0.15 | 4 | 1010.5 |
| 20260508074305 | 17 | 345 | 4.8 | 14.5 | 0.05 | 0.13 | 0.13 | 4 | 1010.5 |
| 20260508073805 | 17 | 336 | 6.4 | 14.5 | 0.05 | 0.10 | 0.10 | 4 | 1010.5 |
| 20260508073306 | 17 | 337 | 3.2 | 9.7 | 0.05 | 0.08 | 0.08 | 4 | 1010.9 |
| 20260508072805 | 17 | 353 | 3.2 | 16.1 | 0.05 | 0.08 | 0.08 | 4 | 1011.1 |
| 20260508072308 | 17 | 330 | 4.8 | 20.9 | 0.03 | 0.05 | 0.05 | 4 | 1010.9 |
| 20260508071307 | 17 | 345 | 3.2 | 4.8 | 0.03 | 0.05 | 0.05 | 4 | 1010.9 |
| 20260508070305 | 17 | 346 | 4.8 | 11.3 | 0.05 | 0.05 | 0.05 | 4 | 1011.1 |
| 20260508065307 | 17 | 333 | 4.8 | 11.3 | 0.05 | 0.05 | 0.05 | 4 | 1011.0 |
| 20260508064307 | 17 | 336 | 3.2 | 12.9 | 0.05 | 0.05 | 0.05 | 4 | 1010.8 |
| 20260508063305 | 18 | 326 | 3.2 | 11.3 | 0.05 | 0.05 | 0.05 | 4 | 1010.7 |
| 20260508062805 | 18 | 344 | 4.8 | 33.8 | 0.05 | 0.05 | 0.05 | 4 | 1010.7 |
| 20260508062306 | 18 | 347 | 4.8 | 12.9 | 0.05 | 0.05 | 0.05 | 4 | 1010.9 |
| 20260508061806 | 18 | 340 | 1.6 | 8.0 | 0.05 | 0.05 | 0.05 | 4 | 1010.9 |
| 20260508061307 | 18 | 339 | 4.8 | 16.1 | 0.05 | 0.05 | 0.05 | 4 | 1010.9 |
| 20260508060304 | 18 | 327 | 3.2 | 9.7 | 0.03 | 0.03 | 0.03 | 4 | 1011.0 |
| 20260508053304 | 18 | 329 | 3.2 | 11.3 | 0.00 | 0.00 | 0.00 | 4 | 1011.7 |
| 20260508052805 | 18 | 346 | 4.8 | 16.1 | 0.00 | 0.00 | 0.00 | 4 | 1011.7 |
| 20260508052307 | 18 | 357 | 3.2 | 14.5 | 0.00 | 0.00 | 0.00 | 4 | 1011.9 |
| 20260508051305 | 18 | 337 | 3.2 | 16.1 | 0.00 | 0.00 | 0.00 | 4 | 1011.9 |
| 20260508050804 | 18 | 348 | 4.8 | 12.9 | 0.00 | 0.00 | 0.00 | 4 | 1012.1 |
| 20260508041804 | 19 | 343 | 3.2 | 16.1 | 0.00 | 0.00 | 0.00 | 4 | 1013.1 |
| 20260508040803 | 19 | 351 | 4.8 | 14.5 | 0.00 | 0.00 | 0.00 | 4 | 1013.1 |
| 20260508040303 | 19 | 344 | 6.4 | 20.9 | 0.00 | 0.00 | 0.00 | 4 | 1013.2 |
| 20260508035306 | 19 | 338 | 4.8 | 16.1 | 0.00 | 0.00 | 0.00 | 4 | 1013.3 |